owner,sensor,date,latitude,longitude,vertical_datum,wind_speed,wind_to_direction,wind_speed_of_gust,qcFlag 
TABS,ioos:station:wmo:42047:1,2013-06-01T00:00:00Z,27.8966,-93.5973,4.0,7.169337487,138.5061414,8.35,'11111222,11111222,11111222' 
TABS,ioos:station:wmo:42047:1,2013-06-01T00:30:00Z,27.8966,-93.5973,4.0,7.31033515,143.679041,8.64,'11111222,11111222,11111222' 
TABS,ioos:station:wmo:42047:1,2013-06-01T01:00:00Z,27.8966,-93.5973,4.0,7.569372497,145.6594014,8.96,'11111222,11111222,11111222' 
TABS,ioos:station:wmo:42047:1,2013-06-01T01:30:00Z,27.8966,-93.5973,4.0,7.56947158,147.0240184,9.01,'11111222,11111222,11111222' 
TABS,ioos:station:wmo:42047:1,2013-06-01T02:00:00Z,27.8966,-93.5973,4.0,8.264556854,149.2148687,9.93,'11111222,11111222,11111222' 
TABS,ioos:station:wmo:42047:1,2013-06-01T02:30:00Z,27.8966,-93.5973,4.0,8.512437959,151.207177,10.02,'11111222,11111222,11111222' 
TABS,ioos:station:wmo:42047:1,2013-06-01T03:00:00Z,27.8966,-93.5973,4.0,8.612932137,148.5801788,9.94,'11111222,11111222,11111222' 
TABS,ioos:station:wmo:42047:1,2013-06-01T03:30:00Z,27.8966,-93.5973,4.0,8.313705552,151.5548234,9.46,'11111222,11111222,11111222' 
TABS,ioos:station:wmo:42047:1,2013-06-01T04:00:00Z,27.8966,-93.5973,4.0,7.710006485,155.396407,9.3,'11111222,11111222,11111222' 
TABS,ioos:station:wmo:42047:1,2013-06-01T04:30:00Z,27.8966,-93.5973,4.0,8.1595343,156.4513029,9.23,'11111222,11111222,11111222' 
TABS,ioos:station:wmo:42047:1,2013-06-01T05:00:00Z,27.8966,-93.5973,4.0,8.448266094,156.7126229,9.98,'11111222,11111222,11111222' 
TABS,ioos:station:wmo:42047:1,2013-06-01T05:30:00Z,27.8966,-93.5973,4.0,8.381294649,156.7388402,9.85,'11111222,11111222,11111222' 
TABS,ioos:station:wmo:42047:1,2013-06-01T06:00:00Z,27.8966,-93.5973,4.0,8.438921732,153.4655848,10.17,'11111222,11111222,11111222' 
TABS,ioos:station:wmo:42047:1,2013-06-01T06:30:00Z,27.8966,-93.5973,4.0,8.345136308,156.1074887,10.07,'11111222,11111222,11111222' 
TABS,ioos:station:wmo:42047:1,2013-06-01T07:00:00Z,27.8966,-93.5973,4.0,8.735181738,152.5258431,9.71,'11111222,11111222,11111222' 
TABS,ioos:station:wmo:42047:1,2013-06-01T07:30:00Z,27.8966,-93.5973,4.0,8.78886227,156.1767801,10.39,'11111222,11111222,11111222' 
TABS,ioos:station:wmo:42047:1,2013-06-01T08:00:00Z,27.8966,-93.5973,4.0,7.936258564,157.0860645,9.47,'11111222,11111222,11111222' 
TABS,ioos:station:wmo:42047:1,2013-06-01T08:30:00Z,27.8966,-93.5973,4.0,8.156206226,157.5857389,9.32,'11111222,11111222,11111222' 
TABS,ioos:station:wmo:42047:1,2013-06-01T09:00:00Z,27.8966,-93.5973,4.0,8.180391189,156.8200677,9.43,'11111222,11111222,11111222' 
TABS,ioos:station:wmo:42047:1,2013-06-01T09:30:00Z,27.8966,-93.5973,4.0,8.326998259,157.6238704,9.92,'11111222,11111222,11111222' 
TABS,ioos:station:wmo:42047:1,2013-06-01T10:00:00Z,27.8966,-93.5973,4.0,7.070678892,159.899458,8.29,'11111222,11111222,11111222' 
TABS,ioos:station:wmo:42047:1,2013-06-01T10:30:00Z,27.8966,-93.5973,4.0,7.582941382,154.9559875,9.78,'11111222,11111222,11111222' 
TABS,ioos:station:wmo:42047:1,2013-06-01T11:00:00Z,27.8966,-93.5973,4.0,7.153635439,159.7160656,8.74,'11111222,11111222,11111222' 
TABS,ioos:station:wmo:42047:1,2013-06-01T11:30:00Z,27.8966,-93.5973,4.0,6.61037064,160.4688712,7.52,'11111222,11111222,11111222' 
TABS,ioos:station:wmo:42047:1,2013-06-01T12:00:00Z,27.8966,-93.5973,4.0,5.575204032,161.9227885,6.65,'11111222,11111222,11111222' 
TABS,ioos:station:wmo:42047:1,2013-06-01T12:30:00Z,27.8966,-93.5973,4.0,6.059389408,157.7949972,6.95,'11111222,11111222,11111222' 
TABS,ioos:station:wmo:42047:1,2013-06-01T13:00:00Z,27.8966,-93.5973,4.0,6.426647649,153.8738016,7.47,'11111222,11111222,11111222' 
TABS,ioos:station:wmo:42047:1,2013-06-01T13:30:00Z,27.8966,-93.5973,4.0,5.878128954,154.8302734,6.99,'11111222,11111222,11111222' 
TABS,ioos:station:wmo:42047:1,2013-06-01T14:00:00Z,27.8966,-93.5973,4.0,5.908925452,162.9759403,7.27,'11111222,11111222,11111222' 
TABS,ioos:station:wmo:42047:1,2013-06-01T14:30:00Z,27.8966,-93.5973,4.0,5.726298979,156.9724702,6.77,'11111222,11111222,11111222' 
TABS,ioos:station:wmo:42047:1,2013-06-01T15:00:00Z,27.8966,-93.5973,4.0,6.607155212,157.860686,8.01,'11111222,11111222,11111222' 
TABS,ioos:station:wmo:42047:1,2013-06-01T15:30:00Z,27.8966,-93.5973,4.0,7.052857577,155.5428663,7.94,'11111222,11111222,11111222' 
TABS,ioos:station:wmo:42047:1,2013-06-01T16:00:00Z,27.8966,-93.5973,4.0,7.160174579,156.9802957,8.32,'11111222,11111222,11111222' 
TABS,ioos:station:wmo:42047:1,2013-06-01T16:30:00Z,27.8966,-93.5973,4.0,6.76701559,157.6799978,7.94,'11111222,11111222,11111222' 
TABS,ioos:station:wmo:42047:1,2013-06-01T17:00:00Z,27.8966,-93.5973,4.0,6.129437168,151.762831,7.05,'11111222,11111222,11111222' 
TABS,ioos:station:wmo:42047:1,2013-06-01T17:30:00Z,27.8966,-93.5973,4.0,6.005938728,155.6115794,7.18,'11111222,11111222,11111222' 
TABS,ioos:station:wmo:42047:1,2013-06-01T18:00:00Z,27.8966,-93.5973,4.0,5.473289687,151.2812084,6.4,'11111222,11111222,11111222' 
TABS,ioos:station:wmo:42047:1,2013-06-01T18:30:00Z,27.8966,-93.5973,4.0,5.658524543,149.9916547,6.42,'11111222,11111222,11111222' 
TABS,ioos:station:wmo:42047:1,2013-06-01T19:00:00Z,27.8966,-93.5973,4.0,5.846041396,143.3460162,6.95,'11111222,11111222,11111222' 
TABS,ioos:station:wmo:42047:1,2013-06-01T19:30:00Z,27.8966,-93.5973,4.0,5.520153983,138.746033,6.94,'11111222,11111222,11111222' 
TABS,ioos:station:wmo:42047:1,2013-06-01T20:00:00Z,27.8966,-93.5973,4.0,5.996082054,140.5495376,7.08,'11111222,11111222,11111222' 
TABS,ioos:station:wmo:42047:1,2013-06-01T20:30:00Z,27.8966,-93.5973,4.0,5.948924273,140.7989904,6.99,'11111222,11111222,11111222' 
TABS,ioos:station:wmo:42047:1,2013-06-01T21:00:00Z,27.8966,-93.5973,4.0,5.297593793,136.3005277,6.08,'11111222,11111222,11111222' 
TABS,ioos:station:wmo:42047:1,2013-06-01T21:30:00Z,27.8966,-93.5973,4.0,5.129103235,133.1832701,6.36,'11111222,11111222,11111222' 
TABS,ioos:station:wmo:42047:1,2013-06-01T22:00:00Z,27.8966,-93.5973,4.0,5.017808286,131.1218003,6.13,'11111222,11111222,11111222' 
TABS,ioos:station:wmo:42047:1,2013-06-01T22:30:00Z,27.8966,-93.5973,4.0,4.249764699,122.605961,5.1,'11111222,11111222,11111222' 
TABS,ioos:station:wmo:42047:1,2013-06-01T23:00:00Z,27.8966,-93.5973,4.0,4.621731277,122.4525211,5.34,'11111222,11111222,11111222' 
TABS,ioos:station:wmo:42047:1,2013-06-01T23:30:00Z,27.8966,-93.5973,4.0,4.618051537,114.5675348,5.55,'11111222,11111222,11111222' 
TABS,ioos:station:wmo:42047:1,2013-06-02T00:00:00Z,27.8966,-93.5973,4.0,4.421594735,104.5394877,5.27,'11111222,11111222,11111222' 
TABS,ioos:station:wmo:42047:1,2013-06-02T00:30:00Z,27.8966,-93.5973,4.0,5.183136116,107.9808863,6.2,'11111222,11111222,11111222' 
TABS,ioos:station:wmo:42047:1,2013-06-02T01:00:00Z,27.8966,-93.5973,4.0,5.742725834,115.8068671,7.37,'11111222,11111222,11111222' 
TABS,ioos:station:wmo:42047:1,2013-06-02T01:30:00Z,27.8966,-93.5973,4.0,6.66646833,122.3792526,7.62,'11111222,11111222,11111222' 
TABS,ioos:station:wmo:42047:1,2013-06-02T02:00:00Z,27.8966,-93.5973,4.0,6.562202374,125.3857689,8.03,'11111222,11111222,11111222' 
TABS,ioos:station:wmo:42047:1,2013-06-02T02:30:00Z,27.8966,-93.5973,4.0,5.689797887,119.133203,7.26,'11111222,11111222,11111222' 
TABS,ioos:station:wmo:42047:1,2013-06-02T03:00:00Z,27.8966,-93.5973,4.0,5.971038436,119.8285458,7.32,'11111222,11111222,11111222' 
TABS,ioos:station:wmo:42047:1,2013-06-02T03:30:00Z,27.8966,-93.5973,4.0,6.580524295,131.612171,7.67,'11111222,11111222,11111222' 
TABS,ioos:station:wmo:42047:1,2013-06-02T04:00:00Z,27.8966,-93.5973,4.0,6.972431427,135.5813875,7.91,'11111222,11111222,11111222' 
TABS,ioos:station:wmo:42047:1,2013-06-02T04:30:00Z,27.8966,-93.5973,4.0,6.781983486,135.8964206,7.89,'11111222,11111222,11111222' 
TABS,ioos:station:wmo:42047:1,2013-06-02T05:00:00Z,27.8966,-93.5973,4.0,6.668763004,140.9647888,7.96,'11111222,11111222,11111222' 
TABS,ioos:station:wmo:42047:1,2013-06-02T05:30:00Z,27.8966,-93.5973,4.0,7.258271144,146.1788601,8.36,'11111222,11111222,11111222' 
TABS,ioos:station:wmo:42047:1,2013-06-02T06:00:00Z,27.8966,-93.5973,4.0,7.467395798,149.5892003,8.41,'11111222,11111222,11111222' 
TABS,ioos:station:wmo:42047:1,2013-06-02T06:30:00Z,27.8966,-93.5973,4.0,7.717849441,150.8447256,8.76,'11111222,11111222,11111222' 
TABS,ioos:station:wmo:42047:1,2013-06-02T07:00:00Z,27.8966,-93.5973,4.0,6.463783722,148.9909209,7.4,'11111222,11111222,11111222' 
TABS,ioos:station:wmo:42047:1,2013-06-02T07:30:00Z,27.8966,-93.5973,4.0,5.275699006,148.3287488,6.3,'11111222,11111222,11111222' 
TABS,ioos:station:wmo:42047:1,2013-06-02T08:00:00Z,27.8966,-93.5973,4.0,4.592918462,153.2120652,5.28,'11111222,11111222,11111222' 
TABS,ioos:station:wmo:42047:1,2013-06-02T08:30:00Z,27.8966,-93.5973,4.0,3.565347108,138.9806746,3.91,'11111222,11111222,11111222' 
TABS,ioos:station:wmo:42047:1,2013-06-02T09:00:00Z,27.8966,-93.5973,4.0,3.370845591,138.1268029,3.71,'11111222,11111222,11111222' 
TABS,ioos:station:wmo:42047:1,2013-06-02T09:30:00Z,27.8966,-93.5973,4.0,3.203700985,147.1038769,3.76,'11111222,11111222,11111222' 
TABS,ioos:station:wmo:42047:1,2013-06-02T10:00:00Z,27.8966,-93.5973,4.0,2.03823453,132.6143772,2.27,'11111222,11111222,11111222' 
TABS,ioos:station:wmo:42047:1,2013-06-02T10:30:00Z,27.8966,-93.5973,4.0,2.085976989,135.1945375,2.39,'11111222,11111222,11111222' 
TABS,ioos:station:wmo:42047:1,2013-06-02T11:00:00Z,27.8966,-93.5973,4.0,3.777194726,155.6065281,3.97,'11111222,11111222,11111222' 
TABS,ioos:station:wmo:42047:1,2013-06-02T11:30:00Z,27.8966,-93.5973,4.0,4.668361597,160.4785258,5.37,'11111222,11111222,11111222' 
TABS,ioos:station:wmo:42047:1,2013-06-02T12:00:00Z,27.8966,-93.5973,4.0,4.214380144,171.6778606,4.51,'11111222,11111222,11111222' 
TABS,ioos:station:wmo:42047:1,2013-06-02T12:30:00Z,27.8966,-93.5973,4.0,4.538127367,165.3209437,4.72,'11111222,11111222,11111222' 
TABS,ioos:station:wmo:42047:1,2013-06-02T13:00:00Z,27.8966,-93.5973,4.0,3.386000591,163.7062011,3.76,'11111222,11111222,11111222' 
TABS,ioos:station:wmo:42047:1,2013-06-02T13:30:00Z,27.8966,-93.5973,4.0,1.542076522,177.0264863,1.77,'11111222,11111222,11111222' 
TABS,ioos:station:wmo:42047:1,2013-06-02T14:00:00Z,27.8966,-93.5973,4.0,0.889550448,188.4035619,1.03,'11111222,11111222,11111222' 
TABS,ioos:station:wmo:42047:1,2013-06-02T14:30:00Z,27.8966,-93.5973,4.0,0.701783442,220.9556291,1.13,'11111222,11111222,11111222' 
TABS,ioos:station:wmo:42047:1,2013-06-02T15:00:00Z,27.8966,-93.5973,4.0,1.800138884,290.1462173,2.29,'11111222,11111222,11111222' 
TABS,ioos:station:wmo:42047:1,2013-06-02T15:30:00Z,27.8966,-93.5973,4.0,2.854067273,303.1331973,3.43,'11111222,11111222,11111222' 
TABS,ioos:station:wmo:42047:1,2013-06-02T16:00:00Z,27.8966,-93.5973,4.0,2.606338428,305.9464773,3.16,'11111222,11111222,11111222' 
TABS,ioos:station:wmo:42047:1,2013-06-02T16:30:00Z,27.8966,-93.5973,4.0,3.890347028,313.541775,4.52,'11111222,11111222,11111222' 
TABS,ioos:station:wmo:42047:1,2013-06-02T17:00:00Z,27.8966,-93.5973,4.0,5.184013889,307.00244,5.74,'11111222,11111222,11111222' 
TABS,ioos:station:wmo:42047:1,2013-06-02T17:30:00Z,27.8966,-93.5973,4.0,10.49592778,344.4143517,12.52,'11111222,11111222,11111222' 
TABS,ioos:station:wmo:42047:1,2013-06-02T18:00:00Z,27.8966,-93.5973,4.0,6.901159323,355.5119482,8.44,'11111222,11111222,11111222' 
TABS,ioos:station:wmo:42047:1,2013-06-02T18:30:00Z,27.8966,-93.5973,4.0,4.917570538,17.88202128,5.85,'11111222,11111222,11111222' 
TABS,ioos:station:wmo:42047:1,2013-06-02T19:00:00Z,27.8966,-93.5973,4.0,3.720779488,20.2854412,4.26,'11111222,11111222,11111222' 
TABS,ioos:station:wmo:42047:1,2013-06-02T19:30:00Z,27.8966,-93.5973,4.0,2.586310113,30.43156651,3.31,'11111222,11111222,11111222' 
TABS,ioos:station:wmo:42047:1,2013-06-02T20:00:00Z,27.8966,-93.5973,4.0,2.708228203,45.14928096,3.52,'11111222,11111222,11111222' 
TABS,ioos:station:wmo:42047:1,2013-06-02T20:30:00Z,27.8966,-93.5973,4.0,2.169469981,70.89653286,3.01,'11111222,11111222,11111222' 
TABS,ioos:station:wmo:42047:1,2013-06-02T21:00:00Z,27.8966,-93.5973,4.0,2.435261793,93.76753603,3.06,'11111222,11111222,11111222' 
TABS,ioos:station:wmo:42047:1,2013-06-02T21:30:00Z,27.8966,-93.5973,4.0,2.752308122,84.57899647,3.43,'11111222,11111222,11111222' 
TABS,ioos:station:wmo:42047:1,2013-06-02T22:00:00Z,27.8966,-93.5973,4.0,2.950525377,74.26761109,3.68,'11111222,11111222,11111222' 
TABS,ioos:station:wmo:42047:1,2013-06-02T22:30:00Z,27.8966,-93.5973,4.0,2.141144554,56.23537322,3.25,'11111222,11111222,11111222' 
TABS,ioos:station:wmo:42047:1,2013-06-02T23:00:00Z,27.8966,-93.5973,4.0,2.63250831,40.22327311,3.4,'11111222,11111222,11111222' 
TABS,ioos:station:wmo:42047:1,2013-06-02T23:30:00Z,27.8966,-93.5973,4.0,2.669925093,9.920727235,3.67,'11111222,11111222,11111222' 
TABS,ioos:station:wmo:42047:1,2013-06-03T00:00:00Z,27.8966,-93.5973,4.0,3.169305918,7.797505621,3.85,'11111222,11111222,11111222' 
TABS,ioos:station:wmo:42047:1,2013-06-03T00:30:00Z,27.8966,-93.5973,4.0,3.575723703,9.172321012,4.7,'11111222,11111222,11111222' 
TABS,ioos:station:wmo:42047:1,2013-06-03T01:00:00Z,27.8966,-93.5973,4.0,4.055268179,13.69332697,4.91,'11111222,11111222,11111222' 
TABS,ioos:station:wmo:42047:1,2013-06-03T01:30:00Z,27.8966,-93.5973,4.0,4.200059523,31.26761266,5.16,'11111222,11111222,11111222' 
TABS,ioos:station:wmo:42047:1,2013-06-03T02:00:00Z,27.8966,-93.5973,4.0,4.058866837,40.20289656,4.89,'11111222,11111222,11111222' 
TABS,ioos:station:wmo:42047:1,2013-06-03T02:30:00Z,27.8966,-93.5973,4.0,3.830208872,52.53140147,4.44,'11111222,11111222,11111222' 
TABS,ioos:station:wmo:42047:1,2013-06-03T03:00:00Z,27.8966,-93.5973,4.0,3.167980429,34.84356262,4.56,'11111222,11111222,11111222' 
TABS,ioos:station:wmo:42047:1,2013-06-03T03:30:00Z,27.8966,-93.5973,4.0,2.337348926,66.28603965,2.48,'11111222,11111222,11111222' 
TABS,ioos:station:wmo:42047:1,2013-06-03T04:00:00Z,27.8966,-93.5973,4.0,2.118159579,53.83307831,2.44,'11111222,11111222,11111222' 
TABS,ioos:station:wmo:42047:1,2013-06-03T04:30:00Z,27.8966,-93.5973,4.0,2.283199509,49.26228547,2.58,'11111222,11111222,11111222' 
TABS,ioos:station:wmo:42047:1,2013-06-03T05:00:00Z,27.8966,-93.5973,4.0,2.640378761,56.42995916,2.91,'11111222,11111222,11111222' 
TABS,ioos:station:wmo:42047:1,2013-06-03T05:30:00Z,27.8966,-93.5973,4.0,2.075307206,64.29889842,2.48,'11111222,11111222,11111222' 
TABS,ioos:station:wmo:42047:1,2013-06-03T06:00:00Z,27.8966,-93.5973,4.0,2.568151086,72.55243146,3.1,'11111222,11111222,11111222' 
TABS,ioos:station:wmo:42047:1,2013-06-03T06:30:00Z,27.8966,-93.5973,4.0,3.669345991,78.84278773,4.63,'11111222,11111222,11111222' 
TABS,ioos:station:wmo:42047:1,2013-06-03T07:00:00Z,27.8966,-93.5973,4.0,3.85945592,63.36819881,4.47,'11111222,11111222,11111222' 
TABS,ioos:station:wmo:42047:1,2013-06-03T07:30:00Z,27.8966,-93.5973,4.0,3.568865366,63.00380382,4.54,'11111222,11111222,11111222' 
TABS,ioos:station:wmo:42047:1,2013-06-03T08:00:00Z,27.8966,-93.5973,4.0,3.216597581,54.23421107,3.8,'11111222,11111222,11111222' 
TABS,ioos:station:wmo:42047:1,2013-06-03T08:30:00Z,27.8966,-93.5973,4.0,2.866234464,57.9730815,3.81,'11111222,11111222,11111222' 
TABS,ioos:station:wmo:42047:1,2013-06-03T09:00:00Z,27.8966,-93.5973,4.0,2.396101,53.65583977,2.83,'11111222,11111222,11111222' 
TABS,ioos:station:wmo:42047:1,2013-06-03T09:30:00Z,27.8966,-93.5973,4.0,1.754223475,54.0443297,2.4,'11111222,11111222,11111222' 
TABS,ioos:station:wmo:42047:1,2013-06-03T10:00:00Z,27.8966,-93.5973,4.0,1.785189066,335.1574585,2.35,'11111222,11111222,11111222' 
TABS,ioos:station:wmo:42047:1,2013-06-03T10:30:00Z,27.8966,-93.5973,4.0,1.239395014,14.48448923,1.77,'11111222,11111222,11111222' 
TABS,ioos:station:wmo:42047:1,2013-06-03T11:00:00Z,27.8966,-93.5973,4.0,1.249199744,17.70947265,1.72,'11111222,11111222,11111222' 
TABS,ioos:station:wmo:42047:1,2013-06-03T11:30:00Z,27.8966,-93.5973,4.0,1.716857595,8.035481461,2.65,'11111222,11111222,11111222' 
TABS,ioos:station:wmo:42047:1,2013-06-03T12:00:00Z,27.8966,-93.5973,4.0,2.921095685,1.569140676,3.82,'11111222,11111222,11111222' 
TABS,ioos:station:wmo:42047:1,2013-06-03T12:30:00Z,27.8966,-93.5973,4.0,3.710525569,348.8110158,4.49,'11111222,11111222,11111222' 
TABS,ioos:station:wmo:42047:1,2013-06-03T13:00:00Z,27.8966,-93.5973,4.0,3.766510321,350.0623291,4.49,'11111222,11111222,11111222' 
TABS,ioos:station:wmo:42047:1,2013-06-03T13:30:00Z,27.8966,-93.5973,4.0,3.883722441,2.508561217,5.01,'11111222,11111222,11111222' 
TABS,ioos:station:wmo:42047:1,2013-06-03T14:00:00Z,27.8966,-93.5973,4.0,5.387188506,355.4216383,6.22,'11111222,11111222,11111222' 
TABS,ioos:station:wmo:42047:1,2013-06-03T14:30:00Z,27.8966,-93.5973,4.0,4.442938217,6.980830623,5.02,'11111222,11111222,11111222' 
TABS,ioos:station:wmo:42047:1,2013-06-03T15:00:00Z,27.8966,-93.5973,4.0,4.520641547,3.931886343,5.19,'11111222,11111222,11111222' 
TABS,ioos:station:wmo:42047:1,2013-06-03T15:30:00Z,27.8966,-93.5973,4.0,3.911751526,8.378442455,4.49,'11111222,11111222,11111222' 
TABS,ioos:station:wmo:42047:1,2013-06-03T16:00:00Z,27.8966,-93.5973,4.0,3.822525343,11.9270183,4.58,'11111222,11111222,11111222' 
TABS,ioos:station:wmo:42047:1,2013-06-03T16:30:00Z,27.8966,-93.5973,4.0,3.908989639,19.26903888,4.86,'11111222,11111222,11111222' 
TABS,ioos:station:wmo:42047:1,2013-06-03T17:00:00Z,27.8966,-93.5973,4.0,3.997424171,24.06409424,4.76,'11111222,11111222,11111222' 
TABS,ioos:station:wmo:42047:1,2013-06-03T17:30:00Z,27.8966,-93.5973,4.0,4.059975369,12.08466187,4.98,'11111222,11111222,11111222' 
TABS,ioos:station:wmo:42047:1,2013-06-03T18:00:00Z,27.8966,-93.5973,4.0,4.41099762,7.817588072,5.2,'11111222,11111222,11111222' 
TABS,ioos:station:wmo:42047:1,2013-06-03T18:30:00Z,27.8966,-93.5973,4.0,4.479698651,14.34620639,5.14,'11111222,11111222,11111222' 
TABS,ioos:station:wmo:42047:1,2013-06-03T19:00:00Z,27.8966,-93.5973,4.0,4.712589522,13.62317201,5.54,'11111222,11111222,11111222' 
TABS,ioos:station:wmo:42047:1,2013-06-03T19:30:00Z,27.8966,-93.5973,4.0,4.969688119,13.61656664,5.8,'11111222,11111222,11111222' 
TABS,ioos:station:wmo:42047:1,2013-06-03T20:00:00Z,27.8966,-93.5973,4.0,4.796832288,16.47017947,5.58,'11111222,11111222,11111222' 
TABS,ioos:station:wmo:42047:1,2013-06-03T20:30:00Z,27.8966,-93.5973,4.0,4.711348002,23.51769622,5.47,'11111222,11111222,11111222' 
TABS,ioos:station:wmo:42047:1,2013-06-03T21:00:00Z,27.8966,-93.5973,4.0,4.910926593,27.39962873,5.75,'11111222,11111222,11111222' 
TABS,ioos:station:wmo:42047:1,2013-06-03T21:30:00Z,27.8966,-93.5973,4.0,4.265172916,43.57471337,5.15,'11111222,11111222,11111222' 
TABS,ioos:station:wmo:42047:1,2013-06-03T22:00:00Z,27.8966,-93.5973,4.0,4.032096229,46.60756092,4.79,'11111222,11111222,11111222' 
TABS,ioos:station:wmo:42047:1,2013-06-03T22:30:00Z,27.8966,-93.5973,4.0,4.069705149,47.48923141,4.71,'11111222,11111222,11111222' 
TABS,ioos:station:wmo:42047:1,2013-06-03T23:00:00Z,27.8966,-93.5973,4.0,3.713717814,56.30959034,4.3,'11111222,11111222,11111222' 
TABS,ioos:station:wmo:42047:1,2013-06-03T23:30:00Z,27.8966,-93.5973,4.0,3.920420896,73.55234433,4.89,'11111222,11111222,11111222' 
TABS,ioos:station:wmo:42047:1,2013-06-04T00:00:00Z,27.8966,-93.5973,4.0,4.052307984,77.74684822,4.93,'11111222,11111222,11111222' 
TABS,ioos:station:wmo:42047:1,2013-06-04T00:30:00Z,27.8966,-93.5973,4.0,3.903857067,74.39694192,4.82,'11111222,11111222,11111222' 
TABS,ioos:station:wmo:42047:1,2013-06-04T01:00:00Z,27.8966,-93.5973,4.0,4.396020928,87.00049916,5.1,'11111222,11111222,11111222' 
TABS,ioos:station:wmo:42047:1,2013-06-04T01:30:00Z,27.8966,-93.5973,4.0,4.569562342,97.54533231,5.47,'11111222,11111222,11111222' 
TABS,ioos:station:wmo:42047:1,2013-06-04T02:00:00Z,27.8966,-93.5973,4.0,4.626121486,102.8650433,5.67,'11111222,11111222,11111222' 
TABS,ioos:station:wmo:42047:1,2013-06-04T02:30:00Z,27.8966,-93.5973,4.0,4.434974634,109.9062183,5.29,'11111222,11111222,11111222' 
TABS,ioos:station:wmo:42047:1,2013-06-04T03:00:00Z,27.8966,-93.5973,4.0,4.563299245,107.9985699,5.21,'11111222,11111222,11111222' 
TABS,ioos:station:wmo:42047:1,2013-06-04T03:30:00Z,27.8966,-93.5973,4.0,4.19926184,112.8406401,4.85,'11111222,11111222,11111222' 
TABS,ioos:station:wmo:42047:1,2013-06-04T04:00:00Z,27.8966,-93.5973,4.0,3.98061553,120.4950861,4.69,'11111222,11111222,11111222' 
TABS,ioos:station:wmo:42047:1,2013-06-04T04:30:00Z,27.8966,-93.5973,4.0,3.7253322,116.2902829,4.55,'11111222,11111222,11111222' 
TABS,ioos:station:wmo:42047:1,2013-06-04T05:00:00Z,27.8966,-93.5973,4.0,3.827962905,122.7355706,4.66,'11111222,11111222,11111222' 
TABS,ioos:station:wmo:42047:1,2013-06-04T05:30:00Z,27.8966,-93.5973,4.0,3.905124838,129.8058989,4.47,'11111222,11111222,11111222' 
TABS,ioos:station:wmo:42047:1,2013-06-04T06:00:00Z,27.8966,-93.5973,4.0,3.693033983,122.0550654,4.33,'11111222,11111222,11111222' 
TABS,ioos:station:wmo:42047:1,2013-06-04T06:30:00Z,27.8966,-93.5973,4.0,4.162931659,119.0282209,4.61,'11111222,11111222,11111222' 
TABS,ioos:station:wmo:42047:1,2013-06-04T07:00:00Z,27.8966,-93.5973,4.0,3.579455266,118.3553164,4.05,'11111222,11111222,11111222' 
TABS,ioos:station:wmo:42047:1,2013-06-04T07:30:00Z,27.8966,-93.5973,4.0,3.888302972,118.4108913,4.3,'11111222,11111222,11111222' 
TABS,ioos:station:wmo:42047:1,2013-06-04T08:00:00Z,27.8966,-93.5973,4.0,3.86,119.4874776,4.61,'11111222,11111222,11111222' 
TABS,ioos:station:wmo:42047:1,2013-06-04T08:30:00Z,27.8966,-93.5973,4.0,4.028001986,126.9271297,4.8,'11111222,11111222,11111222' 
TABS,ioos:station:wmo:42047:1,2013-06-04T09:00:00Z,27.8966,-93.5973,4.0,3.355964839,130.2868125,3.93,'11111222,11111222,11111222' 
TABS,ioos:station:wmo:42047:1,2013-06-04T09:30:00Z,27.8966,-93.5973,4.0,2.793510336,136.0155753,3.23,'11111222,11111222,11111222' 
TABS,ioos:station:wmo:42047:1,2013-06-04T10:00:00Z,27.8966,-93.5973,4.0,2.385330166,129.8981624,2.77,'11111222,11111222,11111222' 
TABS,ioos:station:wmo:42047:1,2013-06-04T10:30:00Z,27.8966,-93.5973,4.0,1.519539404,96.42387633,1.82,'11111222,11111222,11111222' 
TABS,ioos:station:wmo:42047:1,2013-06-04T11:00:00Z,27.8966,-93.5973,4.0,1.800499931,100.5614069,2.01,'11111222,11111222,11111222' 
TABS,ioos:station:wmo:42047:1,2013-06-04T11:30:00Z,27.8966,-93.5973,4.0,2.503197955,97.80680349,2.64,'11111222,11111222,11111222' 
TABS,ioos:station:wmo:42047:1,2013-06-04T12:00:00Z,27.8966,-93.5973,4.0,2.216867159,72.13679347,2.84,'11111222,11111222,11111222' 
TABS,ioos:station:wmo:42047:1,2013-06-04T12:30:00Z,27.8966,-93.5973,4.0,2.097736876,94.92282759,2.33,'11111222,11111222,11111222' 
TABS,ioos:station:wmo:42047:1,2013-06-04T13:00:00Z,27.8966,-93.5973,4.0,2.257542912,79.53585477,2.82,'11111222,11111222,11111222' 
TABS,ioos:station:wmo:42047:1,2013-06-04T13:30:00Z,27.8966,-93.5973,4.0,2.593260496,72.26336612,3.25,'11111222,11111222,11111222' 
TABS,ioos:station:wmo:42047:1,2013-06-04T14:00:00Z,27.8966,-93.5973,4.0,2.755721321,74.85390836,3.31,'11111222,11111222,11111222' 
TABS,ioos:station:wmo:42047:1,2013-06-04T14:30:00Z,27.8966,-93.5973,4.0,3.503740858,95.07639724,4.22,'11111222,11111222,11111222' 
TABS,ioos:station:wmo:42047:1,2013-06-04T15:00:00Z,27.8966,-93.5973,4.0,3.098596456,97.79055234,3.77,'11111222,11111222,11111222' 
TABS,ioos:station:wmo:42047:1,2013-06-04T15:30:00Z,27.8966,-93.5973,4.0,3.010398645,94.76405147,3.87,'11111222,11111222,11111222' 
TABS,ioos:station:wmo:42047:1,2013-06-04T16:00:00Z,27.8966,-93.5973,4.0,3.477484723,77.88183537,4.15,'11111222,11111222,11111222' 
TABS,ioos:station:wmo:42047:1,2013-06-04T16:30:00Z,27.8966,-93.5973,4.0,3.492878469,62.92107046,4.03,'11111222,11111222,11111222' 
TABS,ioos:station:wmo:42047:1,2013-06-04T17:00:00Z,27.8966,-93.5973,4.0,3.634735204,57.92743418,4.0,'11111222,11111222,11111222' 
TABS,ioos:station:wmo:42047:1,2013-06-04T17:30:00Z,27.8966,-93.5973,4.0,3.862460356,46.67819724,4.16,'11111222,11111222,11111222' 
TABS,ioos:station:wmo:42047:1,2013-06-04T18:00:00Z,27.8966,-93.5973,4.0,4.522045997,64.45458277,5.39,'11111222,11111222,11111222' 
TABS,ioos:station:wmo:42047:1,2013-06-04T18:30:00Z,27.8966,-93.5973,4.0,4.512604569,60.82172059,5.18,'11111222,11111222,11111222' 